DAL1876 MMSD-KLAX

Flight info

Callsign DAL1876
Flight time N/A
Altitude 34000
Route TAGMO UT50 ASUTA AMMOR OLAAA2
Aircraft A320/M-SDE2E3FGHIRWXY/LB1

Departure

Time 2026-05-03 20:46
Airport Los Cabos International Airport (MMSD)

Arrival

Time N/A
Airport Los Angeles International Airport (KLAX)
Time Latitude Longitude Altitude Speed Heading
2026-05-03 20:29 23.15681 -109.71774 367 ft 0 kts 81°
2026-05-03 20:40 23.15679 -109.71791 368 ft 3 kts 81°
2026-05-03 20:41 23.15676 -109.71815 367 ft 3 kts 81°
2026-05-03 20:41 23.15670 -109.71840 367 ft 1 kts 40°
2026-05-03 20:41 23.15668 -109.71841 369 ft 0 kts 34°
2026-05-03 20:42 23.15684 -109.71841 367 ft 8 kts 354°
2026-05-03 20:43 23.15715 -109.71878 370 ft 8 kts 288°
2026-05-03 20:43 23.15750 -109.71930 369 ft 10 kts 336°
2026-05-03 20:43 23.15819 -109.71939 371 ft 11 kts 354°
2026-05-03 20:43 23.15899 -109.71947 372 ft 12 kts 354°
2026-05-03 20:44 23.15989 -109.71958 374 ft 14 kts 353°
2026-05-03 20:44 23.16086 -109.71969 377 ft 15 kts 355°
2026-05-03 20:44 23.16213 -109.71982 379 ft 20 kts 355°
2026-05-03 20:44 23.16543 -109.72030 387 ft 14 kts 326°
2026-05-03 20:45 23.16553 -109.72140 388 ft 19 kts 263°
2026-05-03 20:45 23.16460 -109.72217 386 ft 22 kts 174°
2026-05-03 20:45 23.16157 -109.72177 379 ft 77 kts 170°
2026-05-03 20:45 23.15408 -109.72099 364 ft 140 kts 173°
2026-05-03 20:46 23.14258 -109.71997 663 ft 176 kts 172°
2026-05-03 20:46 23.13056 -109.72048 1574 ft 170 kts 198°